Vertical_Velocity
3 5 0 -1 1 4 5 6 3 -0 4 -3 -2 -5 -2 -1 -2 -4 -3 -1 1 -1 -4 -2 2 1 -0 -0 3 -2 -3 -0 -2 -1 1 2 -7 -8 0 6 -0 5 1 3
-5 -0 -3 1 -0 -0 -4 1 2 4 2 3 -0 -0 -3 -2 -4 -2 1 -0 -1 0 -2 -4 -2 2 2 1 0 -2 2 3 -6 -1 -6 -7 3 -6 5 4 -2 2 -3 2
-0 -2 -1 -2 -6 3 2 4 5 1 2 5 5 1 4 -3 -1 -3 -1 1 0 -0 -3 -0 -0 -1 1 2 0 3 1 -1 -5 -1 -2 -4 1 -3 6 2 3 -2 -0 8
-1 -0 -1 1 1 -3 -1 1 -0 4 3 0 2 4 3 3 -0 -1 -1 -1 2 1 -1 -2 -1 -0 -1 1 2 -1 -1 -3 -2 -5 -3 -1 -1 -5 5 1 -0 5 -5 6
-1 -1 -7 3 0 -3 1 6 9 1 -2 3 3 0 1 4 3 1 -0 -1 -1 -0 1 0 -1 -1 -1 -3 -3 3 0 -4 -6 -2 -3 0 -2 -1 1 -4 3 6 4 3
1 -0 1 2 1 -2 -9 -3 -5 -10 -2 4 1 2 1 0 4 4 1 0 1 -0 -1 -0 1 2 -3 -2 -1 -4 -1 -1 -5 -2 -6 -1 3 1 2 -1 3 8 9 3
2 1 -1 -2 2 -0 -2 -1 1 2 7 2 6 4 3 1 -0 3 6 3 0 3 1 -0 -0 -0 2 0 -0 0 -3 0 -4 -5 -4 0 -1 -0 -1 1 2 6 0 2
1 1 -1 -0 1 1 -1 -6 -3 -2 -3 -7 -2 -3 3 1 -1 -0 2 4 5 -1 0 3 1 -1 -1 2 2 1 -0 -0 0 -1 -7 -3 -1 -3 -1 -2 1 -1 2 -2
-0 -1 -3 -5 1 -0 1 -1 -1 -2 -1 -3 -6 -1 -2 -2 0 0 -3 -0 3 4 1 1 -0 4 -1 -2 -1 4 1 -0 -2 -1 -8 -5 1 -4 -3 -1 -1 0 1 1
-0 -1 1 -2 -0 -0 0 -1 -1 -0 2 -0 3 1 0 -0 -2 0 0 -3 -1 2 3 1 1 0 -1 -2 -0 -1 5 3 -1 -1 -6 -7 -2 -3 -1 -1 -3 1 -0 -1
1 0 -2 -3 -3 -2 -3 -3 -3 -6 -3 -1 -1 -2 4 1 0 -2 2 1 -3 0 1 1 1 2 0 -1 -1 -1 -2 1 2 -1 -4 -3 -2 -4 1 -1 -2 -4 -2 -5
-1 0 -1 -3 -2 -1 -0 -3 -2 -0 -4 -4 -1 1 -1 -2 4 1 -0 1 0 -4 1 4 0 -0 2 1 -1 -1 -3 -1 -3 -1 -3 -0 -0 -2 -1 0 3 1 -2 1
-1 -1 -2 -3 -3 -4 1 2 -0 -3 -2 -7 -1 -0 -3 -5 -7 -1 -0 -1 2 1 -4 -2 5 1 0 2 1 -0 -0 -1 -1 -4 -3 -2 -1 -4 -5 -1 2 -2 -4 -6
-0 2 -0 2 -5 -4 -4 0 1 -0 -3 -1 -3 -1 -1 -3 -6 -2 -1 -3 -1 0 5 -1 -4 1 4 0 2 -0 0 1 -0 -2 -2 -5 -1 1 -2 -2 -1 0 1 1
-3 1 -2 -3 -2 -1 -1 -1 -3 -2 -4 -3 -2 -1 -3 -1 -2 -4 -2 -1 -5 -1 -1 5 -0 -2 -1 2 -1 -0 -1 -3 1 -0 -3 0 -4 -1 0 -1 -2 1 1 3
1 -1 -2 -11 -4 -3 -1 -0 -0 -0 -5 -3 -5 4 1 0 -1 -7 -5 -2 -1 -4 -2 -4 4 -3 -8 6 6 -4 -3 -1 -4 -2 2 -0 -2 -1 0 -1 -0 -1 1 1
-1 -4 -3 -6 -1 -2 -6 -2 4 3 -5 -2 -6 1 2 -1 1 -3 -5 -1 -1 -1 0 1 -6 -2 -7 4 11 -17 4 1 -0 -1 -3 -1 1 -1 -1 -2 -2 -3 -2 -0
4 3 -2 -10 -0 1 -9 -4 -2 4 -4 -2 -3 2 -4 -2 2 -3 -11 -1 -1 1 -2 4 -0 -7 -7 15 -9 -1 3 5 -2 0 0 -1 -2 -0 -1 -2 -2 -3 -1 -1
1 0 -5 -1 -8 -1 -4 0 -3 -1 -1 -6 0 -8 -6 -0 -6 -2 -2 -6 -3 2 3 -2 -7 6 25 -7 -4 3 -3 6 7 6 4 1 0 1 0 2 3 2 2 2
6 3 0 2 -10 -6 -5 -2 -3 -1 1 3 2 -8 -7 -4 -6 -5 -12 -4 -6 -10 -1 -5 -1 7 16 -5 -5 -0 -4 -5 1 8 4 2 4 3 0 -1 -1 -1 -0 -0
6 5 2 -1 4 -10 -9 -8 16 1 -4 2 -1 0 1 -4 -4 -7 -7 -10 -14 -17 -1 -8 -12 25 6 -1 -10 5 1 -3 -1 0 2 2 1 3 3 3 2 2 0 -0
11 -1 -3 -5 -2 -4 -2 -2 13 0 -7 1 -2 -4 -4 -2 -2 -6 -5 -6 -4 -6 -8 -6 -4 15 -11 -4 -13 -9 -1 1 -2 -4 0 2 -1 -2 1 3 3 1 0 -0
4 -2 -2 1 0 -13 6 13 10 -4 -8 -2 -3 -3 -2 2 -3 -5 -6 -7 -4 -1 -5 -5 6 -3 5 2 2 -3 -1 2 -2 -5 2 -1 5 4 0 -3 0 1 0 -0
5 -6 -12 -5 -8 3 6 13 10 1 -6 -2 -1 -2 -5 0 -10 -6 -3 -14 -5 -13 0 6 -1 -5 -1 -6 -4 1 -15 -2 1 -1 0 0 -0 3 1 1 1 0 0 0
-2 -5 -18 -5 18 2 16 9 2 -8 -9 -5 -1 -2 -1 -2 -8 -4 -5 -7 -5 3 8 -1 -10 -4 4 -5 -14 -8 -8 -0 1 -5 -2 2 1 2 2 0 -0 1 1 -1
-2 -17 -12 21 11 9 13 10 4 -2 -4 -3 2 -8 -10 -3 -9 -0 1 -1 10 1 -7 -6 -3 -0 -1 2 -4 -6 -5 -6 1 -1 -2 -3 2 1 -1 0 2 1 1 0
-26 -10 15 7 3 10 5 2 6 0 1 6 -11 -6 3 -12 -12 10 3 5 4 1 -3 -5 -3 -3 2 2 -0 3 2 -1 -2 7 -0 1 -1 -1 3 4 -1 -1 -1 1
Height
5728 5722 5718 5713 5709 5706 5703 5699 5694 5690 5686 5680 5672 5666 5662 5658 5655 5652 5651 5651 5650 5648 5647 5645 5643 5641 5640 5637 5634 5633 5629 5627 5625 5623 5618 5614 5610 5606 5602 5596 5592 5585 5579 5575
5733 5728 5724 5719 5715 5711 5705 5702 5698 5693 5690 5685 5680 5673 5668 5663 5659 5657 5655 5653 5652 5650 5648 5647 5645 5644 5643 5640 5638 5637 5635 5632 5628 5624 5622 5618 5615 5609 5605 5600 5596 5589 5584 5581
5739 5734 5727 5723 5720 5714 5710 5706 5703 5698 5692 5689 5686 5681 5676 5670 5665 5661 5659 5657 5655 5653 5650 5648 5648 5647 5647 5645 5642 5640 5639 5637 5634 5630 5627 5623 5617 5613 5609 5605 5600 5594 5590 5589
5742 5737 5732 5728 5723 5717 5714 5709 5704 5701 5698 5692 5689 5686 5681 5677 5672 5667 5662 5660 5658 5656 5653 5652 5650 5650 5649 5647 5645 5643 5642 5640 5637 5633 5630 5628 5622 5618 5613 5611 5605 5601 5598 5594
5743 5740 5736 5732 5726 5721 5716 5712 5708 5705 5701 5696 5692 5688 5685 5682 5678 5674 5670 5664 5661 5659 5656 5654 5653 5651 5650 5649 5647 5645 5644 5642 5640 5636 5633 5632 5628 5623 5618 5615 5612 5607 5604 5601
5743 5740 5737 5732 5728 5723 5718 5713 5708 5706 5702 5698 5694 5691 5688 5685 5682 5679 5674 5671 5667 5662 5659 5657 5654 5653 5652 5650 5648 5646 5645 5643 5641 5639 5636 5634 5633 5628 5624 5619 5618 5615 5612 5608
5743 5740 5736 5733 5728 5724 5720 5715 5709 5706 5702 5699 5697 5694 5690 5687 5685 5681 5679 5675 5672 5669 5663 5659 5657 5654 5652 5651 5650 5648 5645 5644 5643 5640 5638 5637 5634 5632 5629 5625 5622 5622 5620 5618
5741 5738 5735 5733 5729 5723 5719 5716 5711 5706 5702 5699 5697 5695 5692 5688 5685 5683 5680 5677 5675 5672 5668 5663 5660 5658 5655 5652 5650 5649 5647 5645 5643 5642 5640 5639 5636 5636 5634 5632 5630 5628 5627 5626
5738 5735 5733 5730 5727 5722 5719 5715 5711 5706 5702 5699 5695 5692 5692 5689 5686 5682 5681 5678 5675 5673 5671 5667 5664 5660 5657 5654 5651 5648 5648 5646 5645 5644 5643 5641 5639 5638 5637 5636 5634 5631 5631 5630
5736 5732 5729 5726 5724 5721 5717 5714 5709 5705 5701 5697 5693 5690 5688 5687 5685 5683 5680 5678 5676 5673 5671 5670 5666 5663 5660 5657 5654 5651 5648 5647 5645 5644 5643 5644 5641 5640 5639 5640 5641 5636 5636 5635
5733 5730 5726 5722 5720 5718 5715 5712 5708 5705 5700 5697 5692 5688 5685 5682 5682 5681 5680 5678 5676 5674 5670 5669 5668 5665 5662 5660 5658 5655 5651 5647 5646 5644 5644 5645 5643 5643 5642 5642 5641 5640 5641 5641
5729 5725 5722 5720 5717 5714 5710 5707 5705 5702 5698 5695 5691 5687 5683 5680 5677 5677 5676 5675 5673 5672 5671 5668 5666 5665 5663 5661 5659 5658 5656 5652 5649 5647 5646 5645 5645 5645 5644 5644 5643 5643 5643 5642
5725 5721 5717 5715 5712 5709 5706 5703 5700 5697 5693 5690 5687 5683 5681 5678 5675 5671 5670 5670 5671 5669 5668 5667 5665 5663 5662 5661 5659 5657 5657 5655 5653 5650 5649 5647 5646 5645 5644 5645 5645 5646 5647 5645
5719 5716 5713 5710 5707 5704 5700 5696 5694 5692 5689 5685 5683 5679 5676 5673 5668 5667 5664 5663 5663 5665 5664 5663 5662 5660 5661 5659 5659 5657 5656 5655 5654 5652 5649 5648 5646 5646 5646 5647 5646 5646 5646 5646
5711 5709 5707 5703 5701 5698 5694 5690 5688 5686 5685 5680 5677 5674 5671 5666 5664 5661 5658 5656 5654 5656 5658 5658 5658 5657 5655 5657 5656 5654 5654 5653 5652 5652 5650 5649 5647 5647 5646 5646 5646 5645 5645 5645
5704 5702 5699 5698 5693 5690 5688 5684 5681 5680 5678 5675 5673 5669 5665 5659 5657 5656 5652 5649 5648 5647 5648 5650 5651 5651 5650 5652 5653 5649 5648 5648 5649 5649 5648 5647 5646 5645 5644 5644 5644 5643 5644 5644
5696 5694 5693 5690 5687 5683 5680 5678 5675 5671 5671 5668 5667 5664 5658 5652 5649 5648 5646 5643 5642 5641 5641 5643 5643 5643 5642 5648 5650 5639 5643 5644 5643 5643 5644 5644 5644 5643 5643 5642 5642 5642 5642 5642
5683 5682 5682 5681 5677 5674 5672 5669 5666 5662 5662 5660 5658 5655 5649 5643 5642 5640 5639 5636 5635 5636 5635 5635 5635 5635 5634 5641 5640 5635 5636 5637 5636 5636 5637 5638 5638 5639 5640 5640 5640 5639 5639 5638
5671 5671 5669 5668 5669 5665 5662 5660 5659 5657 5655 5650 5649 5642 5637 5634 5633 5631 5630 5628 5628 5628 5628 5626 5626 5627 5629 5629 5630 5627 5627 5627 5629 5629 5630 5629 5630 5631 5632 5633 5634 5634 5635 5635
5658 5658 5656 5656 5657 5655 5653 5649 5647 5648 5645 5641 5639 5632 5631 5629 5626 5625 5624 5621 5620 5617 5619 5616 5616 5618 5616 5613 5616 5614 5613 5616 5618 5620 5621 5622 5623 5624 5624 5625 5626 5626 5627 5627
5646 5644 5643 5641 5644 5642 5639 5636 5634 5635 5634 5631 5627 5624 5621 5616 5614 5613 5613 5611 5609 5608 5609 5606 5604 5605 5601 5599 5600 5601 5600 5601 5606 5609 5608 5611 5612 5614 5615 5616 5617 5618 5618 5619
5633 5631 5628 5628 5627 5625 5625 5625 5625 5623 5619 5617 5613 5611 5609 5606 5602 5600 5600 5599 5595 5595 5594 5593 5593 5591 5585 5583 5586 5587 5587 5587 5590 5595 5597 5598 5601 5602 5605 5606 5608 5609 5610 5610
5617 5616 5616 5614 5614 5609 5612 5612 5610 5606 5604 5601 5597 5595 5595 5593 5590 5588 5587 5584 5582 5581 5579 5578 5579 5568 5564 5564 5567 5569 5571 5574 5577 5580 5584 5586 5589 5591 5594 5595 5596 5598 5599 5600
5599 5601 5601 5599 5592 5600 5598 5597 5593 5591 5589 5585 5582 5581 5582 5580 5576 5575 5572 5568 5567 5565 5564 5562 5558 5552 5548 5548 5551 5550 5553 5557 5562 5566 5570 5574 5577 5579 5581 5583 5585 5587 5588 5589
5583 5585 5584 5582 5587 5586 5584 5580 5577 5574 5573 5570 5566 5566 5566 5565 5562 5560 5555 5552 5551 5550 5547 5541 5536 5534 5531 5532 5537 5538 5540 5544 5548 5551 5555 5559 5564 5567 5569 5571 5572 5574 5576 5577
5565 5570 5569 5573 5574 5571 5569 5565 5561 5558 5556 5553 5549 5551 5547 5550 5544 5539 5539 5538 5538 5534 5527 5521 5519 5518 5515 5516 5520 5525 5527 5532 5535 5538 5541 5545 5549 5553 5557 5558 5560 5562 5563 5564
5551 5557 5559 5558 5559 5556 5552 5548 5545 5541 5538 5534 5529 5533 5533 5526 5521 5524 5525 5524 5521 5515 5509 5504 5502 5502 5502 5502 5505 5508 5510 5515 5520 5522 5526 5531 5535 5538 5542 5546 5548 5548 5550 5552